Showing default

OPS 4412 (TRANSIT 9), 801

Orbit data source: Space-Track

OPS 4412 (TRANSIT 9), 801 is a payload satellite owned by USN BuWeps (US) in LEO that was launched on Thu, 04 Jun 1964 UTC via an SCOUT X-4 launch vehicle from the Air Force Western Test Range (AFWTR). Payload-class satellites include a variety of spacecraft equipped with specific instruments for various scientific and technological missions. These include communications satellites like Starlink; space stations such as the ISS; scientific satellites like the Hubble; Earth observation satellites from companies like Planet Labs, Umbra, and HawkEye 360; GPS; miniature CubeSats for education and research; and military/defense satellites.

Loading next visibility...
Identifier
801, 1964-026A
Orbit
LEO
Country
Flag of USUS
Related business
Manufacturer
APL
Mission
Spacecraft
Bus & Motor
TRANSIT 5, Unknown motor
Mass
54 kg wet, 54 kg dry
Launch date (UTC)
1964-06-04 (61 years ago)
Launch vehicle
SCOUT X-4
Launch site
Air Force Western Test Range (AFWTR)
Object type
Payload
Rocket body
Debris
Shape & HBR
Unknown
Radar Cross Section
Large (>1 m²)

Expand to show TLE details & history
Last TLE update: 11 hours ago

TLE from 11 hours ago
0 OPS 4412 (TRANSIT 9)
1 00801U 64026A   25303.22456468  .00000591  00000-0  28723-3 0  9997
2 00801  90.4544 176.1538 0049435  48.6770 311.8657 14.16821342153580
Epoch: 2025-10-30T05:23Z
TLE epoch observation values (Epoch: 2025-10-30T05:23:22.388Z)
Latitude
0.00003°
Longitude
56.5241°
Altitude
815.465 km
Speed
7.458 km/s
True Right ascension
11h 44m 36s
True Declination
0° 00' 00"
Sunlit
Object was in daylight at epoch
Visualization orbit readout
Latitude
Unknown
Longitude
Unknown
Altitude
Unknown
Speed
Unknown
Apparent Right ascension
Unknown
Apparent Declination
Unknown
Sunlit
N/A
Visualization observer readout
Local Sidereal Time
11:49:37
Azimuth
Unknown
Elevation
Unknown
Doppler factor
Unknown
Orbital elements
Apogee altitude
868.725 km
Perigee altitude
797.428 km
Semi-major axis
7,211.213 km
Eccentricity
0.00494
Inclination
90.4544°
RAAN
176.1538°
Arg. of periapsis
48.677°
True anomaly
311.44209°
Mean anomaly
311.8657°
Eccentric anomaly
311.65407°
Mean motion
3.5443 °/min
Orbital period
101.57 mins
BSTAR
0.00028723
Loading maneuver chart data...
Computing Atmospheric mass density...
Loading historical data...
Loading historical data...
Loading historical data...
Loading historical data...
Loading historical data...
Loading historical data...
Loading historical data...

Documentation

Showing up to 5 results
|